GW5931 Weather Reports


time (UTC)temp
F
wind
direction
speed
knots
gust
knots
rain 1hr
in
rain 24hr
in
rain mn
in
humidity
%
barometer
mb
20260503050023 40 264 2.6 6.1 0.00 0.00 0.00 75 1012.5
20260503044548 40 238 2.6 7.8 0.00 0.00 0.00 75 1012.5
20260503043017 40 253 2.6 6.1 0.00 0.00 0.00 74 1012.7
20260503041517 41 254 3.5 6.1 0.00 0.00 0.00 73 1012.7
20260503040016 41 269 2.6 7.0 0.00 0.00 0.00 72 1012.8
20260503034512 41 231 2.6 6.1 0.00 0.00 0.00 69 1012.7
20260503033013 42 234 2.6 4.3 0.00 0.00 0.00 66 1012.8
20260503031510 42 314 3.5 8.7 0.00 0.00 0.00 64 1012.9
20260503030011 42 269 2.6 7.8 0.00 0.00 0.00 65 1012.9
20260503024508 42 259 2.6 6.1 0.00 0.01 0.00 63 1013.0
20260503023007 42 264 3.5 7.8 0.00 0.01 0.00 65 1013.2
20260503021515 42 260 2.6 6.1 0.00 0.01 0.00 68 1013.3
20260503020004 42 232 2.6 6.1 0.00 0.01 0.00 69 1013.3
20260503014501 42 256 2.6 6.1 0.00 0.01 0.00 71 1013.2
20260503013001 42 213 2.6 5.2 0.00 0.01 0.00 71 1013.2
20260503011501 42 253 4.3 7.0 0.00 0.01 0.00 71 1013.2
20260503010100 42 230 3.5 7.0 0.00 0.01 0.00 71 1013.1
20260503004605 42 238 1.7 4.3 0.00 0.01 0.00 71 1013.0
20260503003103 42 247 0.9 7.0 0.00 0.01 0.00 71 1012.9
20260503001558 42 257 3.5 7.8 0.00 0.01 0.00 71 1012.8
20260503000104 42 234 4.3 7.8 0.00 0.01 0.00 71 1012.7
20260502234610 43 246 2.6 7.8 0.00 0.01 0.00 70 1012.6
20260502233054 43 240 4.3 9.6 0.00 0.01 0.00 70 1012.7
20260502231553 43 243 3.5 9.6 0.00 0.01 0.00 70 1012.5
20260502230053 43 250 3.5 7.0 0.00 0.01 0.00 70 1012.6
20260502224552 43 251 5.2 8.7 0.00 0.01 0.00 70 1012.6
20260502223100 42 234 5.2 8.7 0.00 0.01 0.00 69 1012.6
20260502221554 42 250 6.1 10.4 0.00 0.01 0.00 70 1012.6
20260502221548 42 252 6.1 10.4 0.00 0.01 0.00 70 1012.6
20260502220056 42 240 3.5 10.4 0.00 0.01 0.00 69 1012.6
20260502214608 43 234 3.5 13.0 0.00 0.01 0.00 66 1012.6
20260502213103 45 239 5.2 13.0 0.00 0.01 0.00 59 1012.4
20260502211547 45 278 6.1 9.6 0.00 0.01 0.00 55 1012.4
20260502210041 45 296 6.1 10.4 0.00 0.01 0.00 54 1012.3
20260502204542 45 269 6.1 10.4 0.00 0.02 0.00 57 1012.3
20260502203104 45 296 5.2 10.4 0.00 0.02 0.00 58 1012.4
20260502201542 45 269 5.2 11.3 0.00 0.02 0.00 60 1012.4
20260502200044 44 316 7.0 14.8 0.00 0.02 0.00 62 1012.5
20260502194536 45 272 8.7 15.6 0.00 0.05 0.00 61 1012.5
20260502193008 45 321 7.0 11.3 0.00 0.05 0.00 62 1012.6
20260502191506 45 288 6.1 11.3 0.00 0.05 0.00 64 1012.7
20260502190004 44 262 7.0 14.8 0.00 0.05 0.00 64 1012.7
20260502184502 45 311 7.8 12.2 0.00 0.06 0.00 61 1012.6
20260502183002 45 342 7.8 13.0 0.00 0.06 0.00 60 1012.6
20260502181502 45 327 8.7 14.8 0.00 0.06 0.00 61 1012.6
20260502163108 45 317 6.1 13.9 0.00 0.07 0.00 54 1012.5
20260502161613 45 269 9.6 17.4 0.00 0.07 0.00 53 1012.5
20260502151541 44 298 8.7 17.4 0.00 0.07 0.00 53 1012.9
20260502123002 39 229 4.3 7.8 0.00 0.07 0.00 81 1013.3
20260502121600 38 256 4.3 8.7 0.00 0.07 0.00 82 1013.3
20260502120108 38 219 4.3 10.4 0.00 0.07 0.00 85 1013.3
20260502114547 37 252 5.2 9.6 0.00 0.07 0.00 87 1013.4
20260502113048 37 263 4.3 8.7 0.00 0.07 0.00 88 1013.4
20260502111543 36 234 3.5 10.4 0.00 0.07 0.00 88 1013.3
20260502110031 35 235 4.3 10.4 0.00 0.07 0.00 89 1013.2
20260502104529 35 232 2.6 4.3 0.00 0.07 0.00 89 1013.0
20260502103023 35 228 2.6 6.1 0.00 0.07 0.00 90 1012.9
20260502101520 34 243 2.6 6.1 0.00 0.07 0.00 89 1012.8
20260502091510 35 247 0.9 4.3 0.00 0.07 0.00 87 1012.4
20260502070104 39 258 5.2 8.7 0.00 0.07 0.00 81 1011.5
20260502064550 39 292 4.3 8.7 0.00 0.07 0.00 81 1011.7
20260502063042 39 256 5.2 9.6 0.00 0.07 0.00 81 1011.7
20260502061540 40 302 3.5 13.9 0.00 0.07 0.00 82 1011.8
20260502060037 40 336 7.0 9.6 0.00 0.07 0.00 84 1011.8
20260502054535 41 313 7.0 11.3 0.00 0.07 0.00 86 1011.6
20260502053032 41 254 2.6 6.1 0.00 0.07 0.00 89 1011.3
20260502051534 40 223 1.7 3.5 0.00 0.07 0.00 89 1011.3